"Period start","avg(HW err(1)/warn(2) (#))","avg(Visibility (m))","avg(Weather code (#))","avg(Precip intensity (mm/h))","min(HW err(1)/warn(2) (#))","max(HW err(1)/warn(2) (#))","std(HW err(1)/warn(2) (#))","med(HW err(1)/warn(2) (#))","min(Visibility (m))","max(Visibility (m))","std(Visibility (m))","med(Visibility (m))","min(Weather code (#))","max(Weather code (#))","std(Weather code (#))","med(Weather code (#))","min(Precip intensity (mm/h))","max(Precip intensity (mm/h))","std(Precip intensity (mm/h))","med(Precip intensity (mm/h))"
2016-09-11 00:00:00,2,47878,0,0.00,2,2,0,2,39052,50000,3254,49257,0,0,0,0,0.00,0.00,0.00,0.00
2016-09-11 00:10:00,2,43055,0,0.00,2,2,0,2,33097,49073,5061,45366,0,0,0,0,0.00,0.00,0.00,0.00
2016-09-11 00:20:00,2,47906,0,0.00,2,2,0,2,38201,50000,3702,50000,0,0,0,0,0.00,0.00,0.00,0.00
2016-09-11 00:30:00,2,46424,0,0.00,2,2,0,2,40207,50000,3257,47272,0,0,0,0,0.00,0.00,0.00,0.00
2016-09-11 00:40:00,2,49429,0,0.00,2,2,0,2,45258,50000,1420,50000,0,0,0,0,0.00,0.00,0.00,0.00
2016-09-11 00:50:00,2,47845,0,0.00,0,2,1,2,41386,50000,2960,49522,0,0,0,0,0.00,0.00,0.00,0.00
2016-09-11 01:00:00,0,49278,0,0.00,0,0,0,0,46642,50000,1182,50000,0,0,0,0,0.00,0.00,0.00,0.00
2016-09-11 01:10:00,0,49513,0,0.00,0,0,0,0,47921,50000,777,50000,0,0,0,0,0.00,0.00,0.00,0.00
2016-09-11 01:20:00,2,44264,0,0.00,0,2,1,2,38189,50000,4008,45094,0,0,0,0,0.00,0.00,0.00,0.00
2016-09-11 01:30:00,2,37245,0,0.00,2,2,0,2,24189,48042,7370,37887,0,0,0,0,0.00,0.00,0.00,0.00
2016-09-11 01:40:00,2,41090,0,0.00,2,2,0,2,32374,47493,4929,42864,0,0,0,0,0.00,0.00,0.00,0.00
2016-09-11 01:50:00,2,49855,0,0.00,2,2,0,2,48923,50000,330,50000,0,0,0,0,0.00,0.00,0.00,0.00
2016-09-11 02:00:00,2,47118,0,0.00,2,2,0,2,36099,50000,3981,47970,0,0,0,0,0.00,0.00,0.00,0.00
2016-09-11 02:10:00,1,48016,0,0.00,0,2,1,2,42051,50000,2639,49476,0,0,0,0,0.00,0.00,0.00,0.00
2016-09-11 02:20:00,1,49282,0,0.00,0,2,1,0,46674,50000,1128,50000,0,0,0,0,0.00,0.00,0.00,0.00
2016-09-11 02:30:00,1,47982,0,0.00,0,2,1,2,39526,50000,3412,50000,0,0,0,0,0.00,0.00,0.00,0.00
2016-09-11 02:40:00,1,44990,0,0.00,0,2,1,2,36523,50000,4507,44656,0,0,0,0,0.00,0.00,0.00,0.00
2016-09-11 02:50:00,0,46681,0,0.00,0,2,1,0,35634,50000,4373,48466,0,0,0,0,0.00,0.00,0.00,0.00
2016-09-11 03:00:00,2,46520,0,0.00,2,2,0,2,41305,50000,3021,46980,0,0,0,0,0.00,0.00,0.00,0.00
2016-09-11 03:10:00,2,39838,0,0.00,2,2,0,2,32606,50000,5967,38442,0,0,0,0,0.00,0.00,0.00,0.00
2016-09-11 03:20:00,2,39473,0,0.00,2,2,0,2,30602,49732,5861,39412,0,0,0,0,0.00,0.00,0.00,0.00
2016-09-11 03:30:00,2,39959,0,0.00,2,2,0,2,31809,50000,6409,38699,0,0,0,0,0.00,0.00,0.00,0.00
2016-09-11 03:40:00,2,42110,0,0.00,2,2,0,2,29618,49780,5732,43249,0,0,0,0,0.00,0.00,0.00,0.00
2016-09-11 03:50:00,2,45686,0,0.00,2,2,0,2,38310,50000,4132,45703,0,0,0,0,0.00,0.00,0.00,0.00
2016-09-11 04:00:00,2,44730,0,0.00,2,2,0,2,37989,50000,4107,45923,0,0,0,0,0.00,0.00,0.00,0.00
2016-09-11 04:10:00,2,43223,0,0.00,2,2,0,2,35258,50000,4933,42622,0,0,0,0,0.00,0.00,0.00,0.00
2016-09-11 04:20:00,0,47351,0,0.00,0,0,0,0,41102,50000,3250,49088,0,0,0,0,0.00,0.00,0.00,0.00
2016-09-11 04:30:00,0,46630,0,0.00,0,0,0,0,40546,50000,3283,47846,0,0,0,0,0.00,0.00,0.00,0.00
2016-09-11 04:40:00,0,47510,0,0.00,0,0,0,0,41308,50000,2937,48568,0,0,0,0,0.00,0.00,0.00,0.00
2016-09-11 04:50:00,0,49442,0,0.00,0,0,0,0,47549,50000,823,50000,0,0,0,0,0.00,0.00,0.00,0.00
2016-09-11 05:00:00,0,47108,0,0.00,0,0,0,0,41559,50000,3569,49216,0,0,0,0,0.00,0.00,0.00,0.00
2016-09-11 05:10:00,0,48700,0,0.00,0,2,1,0,42759,50000,2621,50000,0,0,0,0,0.00,0.00,0.00,0.00
2016-09-11 05:20:00,0,45528,0,0.00,0,0,0,0,36002,50000,4791,48166,0,0,0,0,0.00,0.00,0.00,0.00
2016-09-11 05:30:00,0,47189,0,0.00,0,0,0,0,37701,50000,3569,48216,0,0,0,0,0.00,0.00,0.00,0.00
2016-09-11 05:40:00,0,48194,0,0.00,0,0,0,0,41319,50000,2687,50000,0,0,0,0,0.00,0.00,0.00,0.00
2016-09-11 05:50:00,0,48010,0,0.00,0,0,0,0,43472,50000,2274,48834,0,0,0,0,0.00,0.00,0.00,0.00
2016-09-11 06:00:00,0,46150,0,0.00,0,0,0,0,35902,50000,4187,46730,0,0,0,0,0.00,0.00,0.00,0.00
2016-09-11 06:10:00,0,49455,0,0.00,0,0,0,0,46307,50000,1153,50000,0,0,0,0,0.00,0.00,0.00,0.00
2016-09-11 06:20:00,0,46404,0,0.00,0,0,0,0,40809,50000,3854,48425,0,0,0,0,0.00,0.00,0.00,0.00
2016-09-11 06:30:00,0,49157,0,0.00,0,0,0,0,45896,50000,1460,50000,0,0,0,0,0.00,0.00,0.00,0.00
2016-09-11 06:40:00,0,48345,0,0.00,0,0,0,0,43712,50000,2288,49463,0,0,0,0,0.00,0.00,0.00,0.00
2016-09-11 06:50:00,0,49732,0,0.00,0,0,0,0,47321,50000,804,50000,0,0,0,0,0.00,0.00,0.00,0.00
2016-09-11 07:00:00,0,49447,0,0.00,0,0,0,0,46288,50000,1097,50000,0,0,0,0,0.00,0.00,0.00,0.00
2016-09-11 07:10:00,0,49691,0,0.00,0,0,0,0,47766,50000,691,50000,0,0,0,0,0.00,0.00,0.00,0.00
2016-09-11 07:20:00,0,49235,0,0.00,0,0,0,0,46139,50000,1207,50000,0,0,0,0,0.00,0.00,0.00,0.00
2016-09-11 07:30:00,0,50000,0,0.00,0,0,0,0,50000,50000,0,50000,0,0,0,0,0.00,0.00,0.00,0.00
2016-09-11 07:40:00,0,49984,0,0.00,0,0,0,0,49838,50000,49,50000,0,0,0,0,0.00,0.00,0.00,0.00
2016-09-11 07:50:00,0,48203,0,0.00,0,0,0,0,44357,50000,2454,50000,0,0,0,0,0.00,0.00,0.00,0.00
2016-09-11 08:00:00,0,49490,0,0.00,0,0,0,0,47417,50000,1021,50000,0,0,0,0,0.00,0.00,0.00,0.00
2016-09-11 08:10:00,0,50000,0,0.00,0,0,0,0,50000,50000,0,50000,0,0,0,0,0.00,0.00,0.00,0.00
2016-09-11 08:20:00,0,49103,0,0.00,0,0,0,0,44375,50000,1745,50000,0,0,0,0,0.00,0.00,0.00,0.00
2016-09-11 08:30:00,0,49653,0,0.00,0,0,0,0,48165,50000,695,50000,0,0,0,0,0.00,0.00,0.00,0.00
2016-09-11 08:40:00,0,49284,0,0.00,0,0,0,0,46927,50000,1114,50000,0,0,0,0,0.00,0.00,0.00,0.00
2016-09-11 08:50:00,0,49425,0,0.00,0,0,0,0,46885,50000,1038,50000,0,0,0,0,0.00,0.00,0.00,0.00
2016-09-11 09:00:00,0,49991,0,0.00,0,0,0,0,49908,50000,28,50000,0,0,0,0,0.00,0.00,0.00,0.00
2016-09-11 09:10:00,0,49115,0,0.00,0,0,0,0,44511,50000,1833,50000,0,0,0,0,0.00,0.00,0.00,0.00
2016-09-11 09:20:00,0,49467,0,0.00,0,0,0,0,47537,50000,785,50000,0,0,0,0,0.00,0.00,0.00,0.00
2016-09-11 09:30:00,0,49523,0,0.00,0,0,0,0,46990,50000,921,50000,0,0,0,0,0.00,0.00,0.00,0.00
2016-09-11 09:40:00,0,49540,0,0.00,0,0,0,0,46465,50000,1046,50000,0,0,0,0,0.00,0.00,0.00,0.00
2016-09-11 09:50:00,0,49640,0,0.00,0,0,0,0,48065,50000,723,50000,0,0,0,0,0.00,0.00,0.00,0.00
2016-09-11 10:00:00,0,50000,0,0.00,0,0,0,0,50000,50000,0,50000,0,0,0,0,0.00,0.00,0.00,0.00
2016-09-11 10:10:00,0,50000,0,0.00,0,0,0,0,50000,50000,0,50000,0,0,0,0,0.00,0.00,0.00,0.00
2016-09-11 10:20:00,0,50000,0,0.00,0,0,0,0,50000,50000,0,50000,0,0,0,0,0.00,0.00,0.00,0.00
2016-09-11 10:30:00,0,50000,0,0.00,0,0,0,0,50000,50000,0,50000,0,0,0,0,0.00,0.00,0.00,0.00
2016-09-11 10:40:00,0,49606,0,0.00,0,0,0,0,46748,50000,966,50000,0,0,0,0,0.00,0.00,0.00,0.00
2016-09-11 10:50:00,0,49780,0,0.00,0,0,0,0,48726,50000,401,50000,0,0,0,0,0.00,0.00,0.00,0.00
2016-09-11 11:00:00,0,49958,0,0.00,0,0,0,0,49576,50000,127,50000,0,0,0,0,0.00,0.00,0.00,0.00
2016-09-11 11:10:00,0,49957,0,0.00,0,0,0,0,49613,50000,115,50000,0,0,0,0,0.00,0.00,0.00,0.00
2016-09-11 11:20:00,0,49858,0,0.00,0,0,0,0,48788,50000,362,50000,0,0,0,0,0.00,0.00,0.00,0.00
2016-09-11 11:30:00,0,49734,0,0.00,0,0,0,0,47540,50000,734,50000,0,0,0,0,0.00,0.00,0.00,0.00
2016-09-11 11:40:00,0,49788,0,0.00,0,0,0,0,48257,50000,523,50000,0,0,0,0,0.00,0.00,0.00,0.00
2016-09-11 11:50:00,0,49942,0,0.00,0,0,0,0,49416,50000,175,50000,0,0,0,0,0.00,0.00,0.00,0.00
2016-09-11 12:00:00,0,49700,0,0.00,0,0,0,0,48475,50000,514,50000,0,0,0,0,0.00,0.00,0.00,0.00
2016-09-11 12:10:00,0,49029,0,0.00,0,0,0,0,45411,50000,1358,49684,0,0,0,0,0.00,0.00,0.00,0.00
2016-09-11 12:20:00,0,48840,0,0.00,0,0,0,0,45068,50000,1681,49991,0,0,0,0,0.00,0.00,0.00,0.00
2016-09-11 12:30:00,0,49894,0,0.00,0,0,0,0,49315,50000,223,50000,0,0,0,0,0.00,0.00,0.00,0.00
2016-09-11 12:40:00,0,49870,0,0.00,0,0,0,0,48713,50000,386,50000,0,0,0,0,0.00,0.00,0.00,0.00
2016-09-11 12:50:00,0,49472,0,0.00,0,0,0,0,46619,50000,1051,50000,0,0,0,0,0.00,0.00,0.00,0.00
2016-09-11 13:00:00,0,49879,0,0.00,0,0,0,0,49380,50000,203,50000,0,0,0,0,0.00,0.00,0.00,0.00
2016-09-11 13:10:00,0,49700,0,0.00,0,0,0,0,46998,50000,901,50000,0,0,0,0,0.00,0.00,0.00,0.00
2016-09-11 13:20:00,0,48616,0,0.00,0,0,0,0,46159,50000,1202,48906,0,0,0,0,0.00,0.00,0.00,0.00
2016-09-11 13:30:00,0,50000,0,0.00,0,0,0,0,50000,50000,0,50000,0,0,0,0,0.00,0.00,0.00,0.00
2016-09-11 13:40:00,0,49077,0,0.00,0,0,0,0,44814,50000,1864,50000,0,0,0,0,0.00,0.00,0.00,0.00
2016-09-11 13:50:00,0,49058,0,0.00,0,0,0,0,43244,50000,2078,50000,0,0,0,0,0.00,0.00,0.00,0.00
2016-09-11 14:00:00,0,49814,0,0.00,0,0,0,0,48504,50000,439,49978,0,0,0,0,0.00,0.00,0.00,0.00
2016-09-11 14:10:00,0,49858,0,0.00,0,0,0,0,49361,50000,227,50000,0,0,0,0,0.00,0.00,0.00,0.00
2016-09-11 14:20:00,0,49990,0,0.00,0,0,0,0,49898,50000,31,50000,0,0,0,0,0.00,0.00,0.00,0.00
2016-09-11 14:30:00,0,50000,0,0.00,0,0,0,0,50000,50000,0,50000,0,0,0,0,0.00,0.00,0.00,0.00
2016-09-11 14:40:00,0,49017,0,0.00,0,0,0,0,46758,50000,1248,49981,0,0,0,0,0.00,0.00,0.00,0.00
2016-09-11 14:50:00,0,49348,0,0.00,0,0,0,0,47154,50000,1039,50000,0,0,0,0,0.00,0.00,0.00,0.00
2016-09-11 15:00:00,0,49022,0,0.00,0,0,0,0,45489,50000,1396,49846,0,0,0,0,0.00,0.00,0.00,0.00
2016-09-11 15:10:00,0,49405,0,0.00,0,0,0,0,47006,50000,958,50000,0,0,0,0,0.00,0.00,0.00,0.00
2016-09-11 15:20:00,0,48494,0,0.00,0,0,0,0,43426,50000,2153,49284,0,0,0,0,0.00,0.00,0.00,0.00
2016-09-11 15:30:00,0,49971,0,0.00,0,0,0,0,49713,50000,86,50000,0,0,0,0,0.00,0.00,0.00,0.00
2016-09-11 15:40:00,0,49461,0,0.00,0,0,0,0,46155,50000,1195,50000,0,0,0,0,0.00,0.00,0.00,0.00
2016-09-11 15:50:00,0,49539,0,0.00,0,0,0,0,47863,50000,821,50000,0,0,0,0,0.00,0.00,0.00,0.00
2016-09-11 16:00:00,0,49907,0,0.00,0,0,0,0,49067,50000,280,50000,0,0,0,0,0.00,0.00,0.00,0.00
2016-09-11 16:10:00,0,49105,0,0.00,0,0,0,0,43417,50000,2023,50000,0,0,0,0,0.00,0.00,0.00,0.00
2016-09-11 16:20:00,0,49315,0,0.00,0,0,0,0,45153,50000,1449,50000,0,0,0,0,0.00,0.00,0.00,0.00
2016-09-11 16:30:00,0,49623,0,0.00,0,0,0,0,47800,50000,737,50000,0,0,0,0,0.00,0.00,0.00,0.00
2016-09-11 16:40:00,0,49972,0,0.00,0,0,0,0,49725,50000,82,50000,0,0,0,0,0.00,0.00,0.00,0.00
2016-09-11 16:50:00,0,49985,0,0.00,0,0,0,0,49853,50000,44,50000,0,0,0,0,0.00,0.00,0.00,0.00
2016-09-11 17:00:00,0,49469,0,0.00,0,0,0,0,45431,50000,1364,50000,0,0,0,0,0.00,0.00,0.00,0.00
2016-09-11 17:10:00,0,49562,0,0.00,0,0,0,0,47929,50000,746,50000,0,0,0,0,0.00,0.00,0.00,0.00
2016-09-11 17:20:00,0,47760,0,0.00,0,0,0,0,41029,50000,3079,49636,0,0,0,0,0.00,0.00,0.00,0.00
2016-09-11 17:30:00,0,47185,0,0.00,0,0,0,0,43606,50000,2564,47252,0,0,0,0,0.00,0.00,0.00,0.00
2016-09-11 17:40:00,0,47699,0,0.00,0,0,0,0,42470,50000,2581,48758,0,0,0,0,0.00,0.00,0.00,0.00
2016-09-11 17:50:00,0,48844,0,0.00,0,0,0,0,43896,50000,2084,50000,0,0,0,0,0.00,0.00,0.00,0.00
2016-09-11 18:00:00,0,49962,0,0.00,0,0,0,0,49616,50000,115,50000,0,0,0,0,0.00,0.00,0.00,0.00
2016-09-11 18:10:00,0,49431,0,0.00,0,0,0,0,45945,50000,1260,50000,0,0,0,0,0.00,0.00,0.00,0.00
2016-09-11 18:20:00,0,48578,0,0.00,0,0,0,0,39982,50000,2999,50000,0,0,0,0,0.00,0.00,0.00,0.00
2016-09-11 18:30:00,0,49023,0,0.00,0,0,0,0,42920,50000,2117,50000,0,0,0,0,0.00,0.00,0.00,0.00
2016-09-11 18:40:00,0,49876,0,0.00,0,0,0,0,49378,50000,211,50000,0,0,0,0,0.00,0.00,0.00,0.00
2016-09-11 18:50:00,0,49784,0,0.00,0,0,0,0,48952,50000,414,50000,0,0,0,0,0.00,0.00,0.00,0.00
2016-09-11 19:00:00,0,49861,0,0.00,0,0,0,0,48613,50000,416,50000,0,0,0,0,0.00,0.00,0.00,0.00
2016-09-11 19:10:00,0,49529,0,0.00,0,0,0,0,48193,50000,678,50000,0,0,0,0,0.00,0.00,0.00,0.00
2016-09-11 19:20:00,0,49979,0,0.00,0,0,0,0,49772,50000,66,50000,0,0,0,0,0.00,0.00,0.00,0.00
2016-09-11 19:30:00,0,48709,0,0.00,0,0,0,0,45331,50000,1657,49916,0,0,0,0,0.00,0.00,0.00,0.00
2016-09-11 19:40:00,0,49925,0,0.00,0,0,0,0,49324,50000,212,50000,0,0,0,0,0.00,0.00,0.00,0.00
2016-09-11 19:50:00,0,48220,0,0.00,0,0,0,0,43916,50000,2102,49240,0,0,0,0,0.00,0.00,0.00,0.00
2016-09-11 20:00:00,0,50000,0,0.00,0,0,0,0,50000,50000,0,50000,0,0,0,0,0.00,0.00,0.00,0.00
2016-09-11 20:10:00,0,49480,0,0.00,0,0,0,0,44802,50000,1559,50000,0,0,0,0,0.00,0.00,0.00,0.00
2016-09-11 20:20:00,0,49233,0,0.00,0,0,0,0,45654,50000,1551,50000,0,0,0,0,0.00,0.00,0.00,0.00
2016-09-11 20:30:00,0,49831,0,0.00,0,0,0,0,49021,50000,343,50000,0,0,0,0,0.00,0.00,0.00,0.00
2016-09-11 20:40:00,0,49991,0,0.00,0,0,0,0,49944,50000,19,50000,0,0,0,0,0.00,0.00,0.00,0.00
2016-09-11 20:50:00,0,48902,0,0.00,0,0,0,0,46450,50000,1317,49715,0,0,0,0,0.00,0.00,0.00,0.00
2016-09-11 21:00:00,0,49813,0,0.00,0,0,0,0,48131,50000,561,50000,0,0,0,0,0.00,0.00,0.00,0.00
2016-09-11 21:10:00,0,49962,0,0.00,0,0,0,0,49619,50000,114,50000,0,0,0,0,0.00,0.00,0.00,0.00
2016-09-11 21:20:00,0,49693,0,0.00,0,0,0,0,47485,50000,754,50000,0,0,0,0,0.00,0.00,0.00,0.00
2016-09-11 21:30:00,0,48832,0,0.00,0,0,0,0,43496,50000,2013,49902,0,0,0,0,0.00,0.00,0.00,0.00
2016-09-11 21:40:00,0,49750,0,0.00,0,0,0,0,47497,50000,751,50000,0,0,0,0,0.00,0.00,0.00,0.00
2016-09-11 21:50:00,0,49248,0,0.00,0,0,0,0,46834,50000,1104,50000,0,0,0,0,0.00,0.00,0.00,0.00
2016-09-11 22:00:00,0,46946,22,0.03,0,0,0,0,39700,50000,3903,49492,0,61,28,0,0.00,0.20,0.06,0.00
2016-09-11 22:10:00,0,40473,0,0.00,0,0,0,0,13078,50000,12069,45756,0,0,0,0,0.00,0.00,0.00,0.00
2016-09-11 22:20:00,0,49712,0,0.00,0,0,0,0,47117,50000,865,50000,0,0,0,0,0.00,0.00,0.00,0.00
2016-09-11 22:30:00,0,47776,0,0.00,0,0,0,0,43201,50000,2388,48558,0,0,0,0,0.00,0.00,0.00,0.00
2016-09-11 22:40:00,0,48785,0,0.00,0,0,0,0,44856,50000,1879,49996,0,0,0,0,0.00,0.00,0.00,0.00
2016-09-11 22:50:00,0,49810,0,0.00,0,0,0,0,48959,50000,336,50000,0,0,0,0,0.00,0.00,0.00,0.00
2016-09-11 23:00:00,0,48283,0,0.00,0,0,0,0,41906,50000,2652,49722,0,0,0,0,0.00,0.00,0.00,0.00
2016-09-11 23:10:00,0,49520,0,0.00,0,0,0,0,48126,50000,701,49998,0,0,0,0,0.00,0.00,0.00,0.00
2016-09-11 23:20:00,0,47590,0,0.00,0,0,0,0,39972,50000,3421,49792,0,0,0,0,0.00,0.00,0.00,0.00
2016-09-11 23:30:00,0,48827,6,0.00,0,0,0,0,39324,50000,3183,50000,0,61,18,0,0.00,0.00,0.00,0.00
2016-09-11 23:40:00,0,47553,58,0.12,0,0,0,0,43050,50000,2677,48724,51,61,5,61,0.00,0.40,0.11,0.08
2016-09-11 23:50:00,0,43780,18,0.00,0,0,0,0,32203,50000,6238,45904,0,61,28,0,0.00,0.00,0.00,0.00
